Home   Weather   Uyo   Past weeks

Flag for Nigeria Past Weather in Uyo, Nigeria — Yesterday and Last 2 Weeks

72 °F

Passing clouds.

Feels Like: 67 °F
Forecast: 74 / 91 °F
Wind: No wind

Location: Malabo/Fernando Poo

Current Time: Oct 24, 2016 at 6:27:25 AM

Latest Report: Oct 24, 2016 at 5:00 AM

Visibility: N/A

Pressure: 29.83 "Hg

Humidity: 94%

Dew Point: 70 °F

Location of UyoLocation

Past Weather in Uyo — Graph


Uyo Temperature Yesterday

Maximum temperature yesterday: 84 °F (at 2:00 PM)
Minimum temperature yesterday: 73 °F (at 7:00 AM)
Average temperature yesterday: 78 °F

High & Low Weather Summary for the Past Weeks

High86 °F (Oct 12, 11:00 AM)100% (Oct 22, 7:00 AM)29.98 "Hg (Oct 22, 7:00 AM)
Low72 °F (Oct 22, 3:00 AM)66% (Oct 17, 2:00 PM)29.80 "Hg (Oct 11, 5:00 PM)
Average79 °F86%29.89 "Hg
* Reported Oct 9 4:00 AM — Oct 24 4:00 AM, Uyo, Weather by CustomWeather, © 2016

Note: Actual official high and low records may vary slightly from our data, if they occured in-between our weather recording intervals... More about our weather records


Uyo Weather History for the Previous 24 Hours

Scroll right to see more
Time TempWeatherWind HumidityBarometerVisibility
4:00 AM
Mon, Oct 24
73 °FPassing clouds.2 mph89%29.83 "HgN/A
3:00 AM73 °FPassing clouds.1 mph94%29.83 "HgN/A
2:00 AM73 °FPassing clouds.2 mph94%29.86 "HgN/A
1:00 AM73 °FPassing clouds.3 mph94%29.86 "HgN/A
12:00 AM73 °FPassing clouds.3 mph94%29.89 "HgN/A
11:00 PM
Sun, Oct 23
73 °FPassing clouds.3 mph94%29.92 "HgN/A
10:00 PM73 °FPassing clouds.2 mph94%29.92 "HgN/A
9:00 PM75 °FPassing clouds.2 mph94%29.89 "HgN/A
8:00 PM75 °FPassing clouds.No wind94%29.86 "HgN/A
7:00 PM75 °FPassing clouds.1 mph94%29.86 "HgN/A
6:00 PM79 °FPassing clouds.1 mph84%29.83 "HgN/A
5:00 PM81 °FPassing clouds.7 mph79%29.80 "HgN/A
4:00 PM81 °FPartly sunny.9 mph79%29.80 "HgN/A
3:00 PM81 °FPartly sunny.9 mph79%29.83 "HgN/A
2:00 PM84 °FPartly sunny.3 mph74%29.86 "HgN/A
1:00 PM82 °FPartly sunny.7 mph79%29.89 "HgN/A
12:00 PM81 °FPartly sunny.10 mph74%29.92 "HgN/A
11:00 AM77 °FThunderstorms. Partly sunny.5 mph89%29.95 "HgN/A
10:00 AM77 °FThunderstorms. Partly sunny.2 mph83%29.98 "Hg5 mi
9:00 AM75 °FThunderstorms. More clouds than sun.8 mph83%29.95 "Hg5 mi
8:00 AM75 °FThunderstorms. Cloudy.10 mph89%29.95 "Hg2 mi
7:00 AM73 °FStrong thunderstorms. Cloudy.7 mph94%29.95 "Hg1 mi
6:00 AM75 °FThunderstorms. Partly cloudy.10 mph89%29.92 "Hg2 mi
Weather by CustomWeather, © 2016

See weather overviewHow to use our weather pages